[ hide orbit diagram ]
For accurate long-term ephemerides, please instead use our Horizons system.This orbit viewer was implemented using two-body methods, and hence should not be used for determining accurate long-term trajectories (over several years or decades) or planetary encounter circumstances.
Orbital Elements at Epoch 2459000.5 (2020-May-31.0) TDB
Reference: JPL 20 (heliocentric ecliptic J2000)
Element | Value | Uncertainty (1-sigma) | Units |
e | .2104986785653754 | 4.4631e-08 | |
a | 2.963670474220366 | 1.8045e-08 | au |
q | 2.33982175569376 | 1.3702e-07 | au |
i | 4.540228932024622 | 6.521e-06 | deg |
node | 328.7700946300772 | 4.799e-05 | deg |
peri | 54.33069203647236 | 5.0307e-05 | deg |
M | 149.734367054418 | 1.7011e-05 | deg |
tp | 2458225.391878425508 (2018-Apr-16.89187843) | 8.3607e-05 | TDB |
period | 1863.559644028855 5.10 | 1.702e-05 4.66e-08 | d yr |
n | .1931786842205442 | 1.7644e-09 | deg/d |
Q | 3.587519192746973 | 2.1844e-08 | au |
|
| | Orbit Determination Parameters
Additional Information
|
[ show covariance matrix ]
Physical Parameter Table
Parameter |
Symbol |
Value |
Units |
Sigma |
Reference |
Notes |
absolute magnitude |
H |
14.4 |
|
n/a |
MPO319643 |
|
diameter |
diameter |
8.716 |
km |
0.179 |
urn:nasa:pds:neowise_diameters_albedos::2.0[mainbelt] (http://adsabs.harvard.edu/abs/2011ApJ...741...68M) |
|
geometric albedo |
albedo |
0.037 |
|
0.003 |
urn:nasa:pds:neowise_diameters_albedos::2.0[mainbelt] (http://adsabs.harvard.edu/abs/2011ApJ...741...68M) |
|
|
46726 (1997 SA22) Discovered 1997-Sep-27 by Spacewatch at Kitt Peak |
Reference: 20020921/Numbers.arc | Last Updated: 2004-04-19 |
|
[ show close-approach data ]
Alternate Designations
1997 SA22 = 1999 CU23 = 2005 GN224 |
|
|